Flag for U.S.A. Weather past 2 weeks in Anchorage, Alaska, U.S.A.

Now
32 °F

Light snow. Overcast.


Feels Like: 32 °F
Forecast: 19 / 33 °F
Wind: No wind

Location: Lake Hood Seaplane

Current Time: Feb 28, 2015 at 3:54:45 PM

Latest Report: Feb 28, 2015 at 2:53 PM


Visibility: 7 mi

Pressure: 30.27 "Hg

Humidity: 73%

Dew point: 24 °F

Location of AnchorageLocation

Historic Weather in Anchorage — Graph

°F

Anchorage temperature yesterday

Maximum temperature yesterday: 29 °F (at 3:53 PM)
Minimum temperature yesterday: 14 °F (at 6:53 AM)
Average temperature yesterday: 23 °F

Past Weeks' High & Low Weather Summary

 TemperatureHumidityPressure
High45 °F (Feb 17, 10:53 AM)100% (Feb 21, 12:53 PM)30.58 "Hg (Feb 21, 12:53 PM)
Low14 °F (Feb 27, 6:53 AM)45% (Feb 17, 10:53 AM)29.54 "Hg (Feb 16, 3:53 PM)
Average31 °F76%30.10 "Hg
* Reported Feb 13 1:53 PM — Feb 28 1:53 PM, Anchorage, Weather by CustomWeather, © 2015

Note: Actual official high and low records may vary slightly from our data, if they occured in-between our weather recording intervals... More about our weather records

Advertising

Anchorage weather history for previous 24 hours

 ConditionsComfort  
Time TempWeatherWind HumidityBarometerVisibility
1:53 PM
Sat, Feb 28
32 °FOvercast.3 mph73%30.27 "Hg10 mi
12:53 PM31 °FMostly cloudy.No wind64%30.28 "Hg10 mi
11:53 AM30 °FOvercast.No wind66%30.28 "Hg10 mi
10:53 AM30 °FOvercast.3 mph66%30.27 "Hg10 mi
9:53 AM29 °FOvercast.No wind72%30.27 "Hg10 mi
8:53 AM28 °FOvercast.5 mph72%30.28 "Hg10 mi
7:53 AM28 °FOvercast.3 mph72%30.29 "Hg10 mi
6:53 AM28 °FOvercast.3 mph72%30.31 "Hg10 mi
5:53 AM28 °FOvercast.No wind75%30.31 "Hg10 mi
4:53 AM28 °FOvercast.5 mph66%30.32 "Hg10 mi
3:53 AM28 °FOvercast.3 mph72%30.34 "Hg10 mi
2:53 AM27 °FOvercast.No wind78%30.34 "Hg10 mi
1:53 AM28 °FOvercast.No wind75%30.35 "Hg10 mi
12:53 AM28 °FOvercast.No wind72%30.37 "Hg10 mi
11:53 PM
Fri, Feb 27
28 °FOvercast.No wind72%30.37 "Hg10 mi
10:53 PM27 °FOvercast.No wind75%30.38 "Hg10 mi
9:53 PM28 °FOvercast.No wind64%30.38 "Hg10 mi
8:53 PM28 °FPassing clouds.No wind64%30.37 "Hg10 mi
7:53 PM27 °FClear.No wind63%30.36 "Hg10 mi
6:53 PM27 °FClear.No wind61%30.37 "Hg10 mi
5:53 PM28 °FSunny.3 mph58%30.37 "Hg10 mi
4:53 PM29 °FSunny.No wind56%30.40 "Hg10 mi
3:53 PM29 °FSunny.No wind58%30.41 "Hg10 mi
Weather by CustomWeather, © 2015

See weather overviewHow to use our weather pages